Home   Weather   Gandhinagar   Past weeks

Flag for India Past Weather in Gandhinagar, Gujarat, India — Yesterday and Last 2 Weeks

Now
81 °F

Partly cloudy.


Feels Like: 88 °F
Forecast: 78 / 92 °F
Wind: 5 mph from North

Location: Ahmadabad Airport

Current Time: Aug 21, 2017 at 1:08:17 am

Latest Report: Aug 21, 2017 at 12:30 am


Visibility: 2 mi

Pressure: 29.53 "Hg

Humidity: 94%

Dew Point: 79 °F

Location of GandhinagarLocation

Past Weather in Gandhinagar — Graph

°F

Gandhinagar Temperature Yesterday

Maximum temperature yesterday: 86 °F (at 3:30 pm)
Minimum temperature yesterday: 79 °F (at 9:00 am)
Average temperature yesterday: 81 °F

High & Low Weather Summary for the Past Weeks

 TemperatureHumidityPressure
High93 °F (Aug 16, 5:00 pm)100% (Aug 20, 8:30 pm)29.80 "Hg (Aug 20, 8:30 pm)
Low79 °F (Aug 7, 9:30 am)49% (Aug 16, 6:00 pm)29.53 "Hg (Aug 20, 2:30 pm)
Average85 °F75%29.65 "Hg
* Reported Aug 5 10:30 pm — Aug 20 11:00 pm, Gandhinagar. Weather by CustomWeather, © 2017

Note: Actual official high and low records may vary slightly from our data, if they occured in-between our weather recording intervals... More about our weather records

Advertising

Gandhinagar Weather History for the Previous 24 Hours

Scroll right to see more
 ConditionsComfort  
Time TempWeatherWind HumidityBarometerVisibility
11:00 pm
Sun, Aug 20
81 °FMostly cloudy.3 mph100%29.56 "Hg2 mi
10:30 pm81 °FMostly cloudy.5 mph100%29.56 "Hg2 mi
10:00 pm81 °FMostly cloudy.3 mph100%29.56 "Hg2 mi
9:30 pm82 °FMostly cloudy.No wind94%29.56 "Hg2 mi
9:00 pm82 °FLight rain. Mostly cloudy.2 mph94%29.53 "Hg2 mi
8:30 pm81 °FFog.3 mph100%29.53 "Hg2 mi
8:00 pm81 °FFog.5 mph94%29.53 "Hg2 mi
7:30 pm81 °FLight rain. More clouds than sun.5 mph94%29.53 "Hg2 mi
7:00 pm81 °FThunderstorms. More clouds than sun.5 mph94%29.53 "Hg2 mi
6:00 pm81 °FThunderstorms. Cloudy.5 mph94%29.53 "Hg1 mi
5:30 pm82 °FThunderstorms. Cloudy.5 mph94%29.53 "Hg1 mi
4:00 pm84 °FThundershowers. Broken clouds.7 mph84%29.53 "Hg2 mi
3:30 pm86 °FBroken clouds.7 mph84%29.53 "Hg2 mi
3:00 pm84 °FBroken clouds.7 mph89%29.53 "Hg2 mi
2:30 pm84 °FFog.7 mph89%29.53 "Hg2 mi
2:00 pm82 °FFog.8 mph94%29.56 "Hg2 mi
1:30 pm82 °FFog.8 mph94%29.56 "Hg2 mi
1:00 pm82 °FFog.6 mph94%29.59 "Hg1 mi
12:30 pm81 °FRain. More clouds than sun.7 mph94%29.59 "Hg1 mi
12:00 pm81 °FRain. Cloudy.7 mph94%29.62 "Hg1 mi
11:30 am79 °FThunderstorms. Cloudy.7 mph94%29.62 "Hg1 mi
11:00 am81 °FFog.6 mph94%29.62 "Hg2 mi
10:30 am81 °FFog.3 mph94%29.62 "Hg2 mi
10:00 am81 °FFog.3 mph89%29.62 "Hg1 mi
9:30 am79 °FFog.3 mph94%29.62 "Hg1 mi
9:00 am79 °FRain. Cloudy.6 mph94%29.62 "Hg1 mi
8:30 am81 °FRain. More clouds than sun.5 mph89%29.62 "Hg1 mi
8:00 am81 °FDrizzle. Broken clouds.3 mph89%29.62 "Hg1 mi
7:30 am81 °FLight rain. Broken clouds.3 mph94%29.62 "Hg1 mi
7:00 am81 °FLight rain. Broken clouds.6 mph94%29.59 "Hg1 mi
6:30 am81 °FFog.3 mph94%29.59 "Hg2 mi
6:00 am81 °FFog.3 mph94%29.59 "Hg2 mi
5:30 am81 °FFog.3 mph94%29.59 "Hg2 mi
5:00 am81 °FFog.5 mph94%29.59 "Hg2 mi
4:30 am81 °FPartly cloudy.5 mph94%29.59 "Hg2 mi
4:00 am81 °FPartly cloudy.3 mph94%29.59 "Hg2 mi
3:30 am81 °FPartly cloudy.3 mph94%29.59 "Hg2 mi
3:00 am81 °FPartly cloudy.No wind94%29.59 "Hg2 mi
2:30 am81 °FPartly cloudy.2 mph89%29.59 "Hg2 mi
2:00 am81 °FPartly cloudy.2 mph94%29.62 "Hg2 mi
1:30 am81 °FLight rain. Partly cloudy.No wind89%29.62 "Hg2 mi
1:00 am81 °FLight rain. Partly cloudy.2 mph89%29.62 "Hg2 mi
Weather by CustomWeather, © 2017

See weather overviewHow to use our weather pages